Tracking 30918 objects as of 2-Jul-2025
HD Live streaming from Space Station
objects crossing your sky now

STARLINK-4123

Track STARLINK-4123 now!
10-day predictions
STARLINK-4123 is classified as:


NORAD ID: 53539
Int'l Code: 2022-101N
Perigee: 545.8 km
Apogee: 548.0 km
Inclination: 53.2 °
Period: 95.4 minutes
Semi major axis: 6917 km
RCS: Unknown
Launch date: August 19, 2022
Source: United States (US)
Launch site: AIR FORCE EASTERN TEST RANGE (AFETR)
Your satellite tracking list
STARLINK-30120
Track 1 satellite(s)




NASA's NSSDC Master Catalog

Two Line Element Set (TLE):
1 53539U 22101N   25182.54199565  .00000261  00000-0  34480-4 0  9995
2 53539  53.2182 121.5657 0001622  88.8521 271.2657 15.08841417158258
Source of the keplerian elements: AFSPC